N6BK KHFD-26N

Flight info

Callsign N6BK
Flight time N/A
Altitude 4500
Route DCT
Aircraft C172/L-VGD/C

Departure

Time 2026-04-21 13:10
Airport Hartford Brainard Airport (KHFD)

Arrival

Time N/A
Airport 26N
Time Latitude Longitude Altitude Speed Heading
2026-04-21 13:10 41.62227 -72.72782 4488 ft 101 kts 220°
2026-04-21 13:10 41.61696 -72.73394 4487 ft 101 kts 220°
2026-04-21 13:11 41.61166 -72.74004 4492 ft 101 kts 220°
2026-04-21 13:11 41.60635 -72.74615 4494 ft 101 kts 220°
2026-04-21 13:11 41.60105 -72.75229 4493 ft 101 kts 220°
2026-04-21 13:11 41.59570 -72.75844 4495 ft 102 kts 220°
2026-04-21 13:12 41.59034 -72.76460 4493 ft 102 kts 220°
2026-04-21 13:12 41.58503 -72.77083 4493 ft 102 kts 220°
2026-04-21 13:12 41.57971 -72.77704 4493 ft 101 kts 220°
2026-04-21 13:12 41.57444 -72.78325 4493 ft 101 kts 220°
2026-04-21 13:13 41.56918 -72.78946 4494 ft 101 kts 220°
2026-04-21 13:13 41.56387 -72.79566 4494 ft 101 kts 220°
2026-04-21 13:13 41.55857 -72.80183 4494 ft 101 kts 220°
2026-04-21 13:13 41.55331 -72.80802 4494 ft 101 kts 220°
2026-04-21 13:14 41.54802 -72.81425 4495 ft 102 kts 220°
2026-04-21 13:14 41.54270 -72.82049 4493 ft 101 kts 220°
2026-04-21 13:14 41.53738 -72.82666 4495 ft 102 kts 220°
2026-04-21 13:14 41.53209 -72.83280 4494 ft 102 kts 220°
2026-04-21 13:15 41.52680 -72.83900 4489 ft 101 kts 220°
2026-04-21 13:15 41.52155 -72.84519 4503 ft 101 kts 220°
2026-04-21 13:15 41.51630 -72.85142 4507 ft 101 kts 220°
2026-04-21 13:15 41.51104 -72.85761 4506 ft 101 kts 220°
2026-04-21 13:16 41.50579 -72.86379 4509 ft 101 kts 220°
2026-04-21 13:16 41.50056 -72.87000 4510 ft 100 kts 220°
2026-04-21 13:16 41.49533 -72.87621 4509 ft 101 kts 220°
2026-04-21 13:16 41.49010 -72.88241 4510 ft 101 kts 221°
2026-04-21 13:17 41.48487 -72.88861 4508 ft 101 kts 220°
2026-04-21 13:17 41.47965 -72.89481 4498 ft 101 kts 221°
2026-04-21 13:17 41.47440 -72.90099 4498 ft 101 kts 220°
2026-04-21 13:17 41.46917 -72.90721 4500 ft 101 kts 221°
2026-04-21 13:18 41.46394 -72.91346 4499 ft 101 kts 221°
2026-04-21 13:18 41.45868 -72.91969 4500 ft 101 kts 221°
2026-04-21 13:18 41.45347 -72.92592 4499 ft 101 kts 221°
2026-04-21 13:18 41.44824 -72.93212 4499 ft 101 kts 221°
2026-04-21 13:19 41.44301 -72.93832 4497 ft 101 kts 221°
2026-04-21 13:19 41.43779 -72.94457 4497 ft 101 kts 221°
2026-04-21 13:19 41.43260 -72.95083 4496 ft 101 kts 221°
2026-04-21 13:19 41.42747 -72.95702 4505 ft 99 kts 221°
2026-04-21 13:20 41.42411 -72.96108 4504 ft 97 kts 221°
2026-04-21 13:20 41.41666 -72.96768 4499 ft 96 kts 211°
2026-04-21 13:20 41.41106 -72.97245 4499 ft 95 kts 211°
2026-04-21 13:20 41.40628 -72.97655 4502 ft 95 kts 212°